Other Surface Observations
Issued by NWS

Home | Current Version | Previous Version | Text Only | Print | Product List | Glossary On
Versions: 1 2 3 4 5 6 7 8 9 10 11 12 13 14 15 16 17 18 19 20 21 22 23 24 25 26 27 28 29 30 31 32 33 34 35 36 37 38 39 40 41 42 43 44 45 46 47 48 49 50
000
SXUS52 KTAE 281106
OSOTAE
OSOTAE
North Florida/South Alabama/Southwest Georgia Weather Roundup
National Weather Service Tallahassee Florida
700 AM EDT TUE APR 28 2015

Note: "fair" indicates few or no clouds below 12,000 feet with no
significant weather and/or obstructions to visibility.

!FLZ017-115-028-034-025-281200
...North Florida...

CITY           SKY/WX    TMP DP  RH WIND       PRES   REMARKS
TALLAHASSEE    CLOUDY    68  65  90 CALM      29.83R
APALACHICOLA   CLOUDY    74  69  85 NW9       29.83R
PERRY          CLOUDY    68  67  98 NE5       29.81F
CROSS CITY       N/A     68  67  96 S6        29.82S
JACKSONVILLE   CLOUDY    65  61  87 E8        29.84S
$$

!FLZ112-006-005-002-011-281200
...Florida Panhandle...

CITY           SKY/WX    TMP DP  RH WIND       PRES   REMARKS
MARIANNA       LGT RAIN  65  64  97 NE6       29.83R
BONIFAY          N/A     64  61  90 NE5       29.81S
PANAMA CITY NW CLOUDY    66  64  93 N8        29.79R
TYNDALL AFB    DRIZZLE   70  68  93 N15G28    29.74F
TYND DRONE APT LGT RAIN  70  68  96 SE26G33   29.70F
DE FUNIAK SPR  FAIR      62  58  89 E7        29.80F
EGLIN AFB      CLOUDY    65  62  89 E6        29.76F
DESTIN         CLOUDY    67  64  90 NE8       29.77F
HURLBURT       NOT AVBL
CRESTVIEW      CLOUDY    61  58  90 E5        29.80R
PENSACOLA      CLOUDY    63  61  93 E7        29.75S
$$

!ALZ063-066-281200
...South Alabama...

CITY           SKY/WX    TMP DP  RH WIND       PRES   REMARKS
DOTHAN         CLOUDY    61  50  67 E6        29.86R
OZARK CAIRNS   CLOUDY    60  47  64 NE8       29.82R
FT RUCKER HELI CLOUDY    61  48  62 NE5       29.81R
RUCKER HELI 3  NOT AVBL
RUCKER HELI 2  CLOUDY    61  48  62 NE7       29.82R
FLORALA APT    CLOUDY    59  52  77 CALM      29.82R
ANDALUSIA      CLOUDY    63  47  55 E5        29.81R
TROY           CLOUDY    57  46  66 NE3       29.84S
EUFALA         CLOUDY    60  47  61 CALM      29.85R
MOBILE         CLOUDY    60  57  89 N5        29.81R
$$

!GAZ120>161-281200
...Southwest and South Central Georgia...

CITY           SKY/WX    TMP DP  RH WIND       PRES   REMARKS
THOMASVILLE    CLOUDY    64  63  94 E6        29.85R
BAINBRIDGE     RAIN      66  64  94 N5        29.85R
MOODY AFB      CLOUDY    64  61  88 E6        29.85R
VALDOSTA       CLOUDY    65  62  90 E3        29.85R
MOULTRIE       DRIZZLE   64  61  88 E6        29.85R
BLAKELY        CLOUDY    63  55  77 CALM      29.85R
ALBANY         CLOUDY    62  58  86 NE6       29.87R
TIFTON         CLOUDY    64  61  93 E5        29.87R
FITZGERALD     CLOUDY    64  62  91 CALM      29.89R
CORDELE        PTSUNNY   60  55  85 NE3       29.88R
AMERICUS       FAIR      55  50  82 NE6       29.88R
HOMERVILLE     CLOUDY    64  63  94 E3        29.86R
$$

!GMZ750-755-770-775-281200
...Coastal and Buoy Obs...

STATION/POSITION TIME  TEMP    WIND        PRES    VSBY  WAVE
                       AIR SEA DIR/SP/G                  HT/PER
                 (UTC) (F)     (DEG/KT/KT) (MB)    (MI)  (FT/S)
KEATON BEACH     1100   68     130/ 13/ 15 1008.0F
CEDAR KEY        1000   67      60/  7/  9 1009.8R
C TOWER          1100   71     180/ 13/ 14 1009.3F
APALACHICOLA BUO 1050   70 75   10/  8/ 10 1009.7F         2/ 7
PANAMA CITY BUOY 1050   72 75  360/ 10/ 14 1011.0R         3/ 7
MOBILE BUOY      1050   74 75  110/ 21/ 27 1005.5F
ORANGE BCH AL BU 1050   70 73   50/ 17/ 21 1006.1R         5/ 6
$$



USA.gov is the U.S. government's official web portal to all federal, state and local government web resources and services.